World > North America > United States > New Jersey

Moorestown, New Jersey Regional Weather

Lat: 39.97N, Lon: 74.94W
Wx Zone: NJZ019
Warning FLW WEATHER ALERT - FLASH FLOOD WATCH (More Info. Click Here) Warning
Feedback

Moorestown, NJ Regional Weather

Expires:201907220800;;443631
ASUS41 KOKX 220714
RWROKX

Regional Weather Roundup
National Weather Service New York NY
300 AM EDT MON JUL 22 2019

Note: "FAIR" indicates few or no clouds below 12,000 feet with no
significant weather and/or obstructions to visibility.


NJZ001-105-106-008-010-013-015-019>022-104-220800-
New Jersey
  
CITY           SKY/WX    TMP DP  RH WIND       PRES   REMARKS
Newark/Liberty CLOUDY    82  70  66 NW9       29.83F                  
Teterboro      FAIR      81  70  69 N12G21    29.78F                  
Caldwell       LGT RAIN  79  72  79 VRB3      29.83F                  
Somerville     FAIR      74  72  93 S5        29.85R                  
Linden         FAIR      80  70  71 W5        29.84R                  
Perth Amboy      N/A     77 N/A N/A W9          N/A                   
Sussex         FAIR      73  70  90 VRB5      29.85F                  
Andover          N/A     74  71  91 NW8       29.86F                  
Trenton        FAIR      74  70  87 W7        29.87R                  
Millville      FAIR      77  71  82 CALM      29.86F                  
Atlantic City  FAIR      80  72  76 N5        29.86F                  
Wrightstown    FAIR      75  74  97 CALM      29.84                   
Toms River     FAIR      77  32  19 CALM      29.86F                  
Belmar         FAIR      75  73  93 CALM      29.86F                  
$$
 

SKY/WX - Weather  TMP - Temperature  DP - Dew Point  RH - Relative Humidity
WIND - Wind Direction/Speed PRES - Barometric Pressure VSB - Visibility
WCI - Wind Chill Index E13G22 Wind - East Wind 13 mph/Gusts of 22 mph